ACA236 KDEN-CYYC

Flight info

Callsign ACA236
Flight time N/A
Altitude 34000
Route XXWNG1 XXWNG DCT BIL DCT TOVUM EBGAL7
Aircraft A320/M-V/N

Departure

Time 2026-05-06 22:48
Airport Denver International Airport (KDEN)

Arrival

Time N/A
Airport Calgary International Airport (CYYC)
Time Latitude Longitude Altitude Speed Heading
2026-05-06 22:22 39.85439 -104.67599 5385 ft 0 kts 156°
2026-05-06 22:38 39.85447 -104.67604 5383 ft 2 kts 156°
2026-05-06 22:38 39.85463 -104.67613 5380 ft 3 kts 156°
2026-05-06 22:39 39.85481 -104.67622 5381 ft 3 kts 156°
2026-05-06 22:39 39.85498 -104.67632 5380 ft 3 kts 156°
2026-05-06 22:39 39.85514 -104.67641 5382 ft 3 kts 156°
2026-05-06 22:39 39.85518 -104.67643 5378 ft 0 kts 156°
2026-05-06 22:40 39.85521 -104.67645 5380 ft 3 kts 165°
2026-05-06 22:40 39.85540 -104.67647 5381 ft 3 kts 203°
2026-05-06 22:40 39.85545 -104.67645 5378 ft 0 kts 214°
2026-05-06 22:42 39.85536 -104.67660 5378 ft 9 kts 240°
2026-05-06 22:42 39.85544 -104.67766 5379 ft 13 kts 316°
2026-05-06 22:42 39.85592 -104.67870 5379 ft 14 kts 271°
2026-05-06 22:43 39.85590 -104.68001 5380 ft 15 kts 269°
2026-05-06 22:43 39.85589 -104.68134 5378 ft 14 kts 269°
2026-05-06 22:43 39.85529 -104.68200 5381 ft 12 kts 184°
2026-05-06 22:43 39.85452 -104.68201 5382 ft 10 kts 180°
2026-05-06 22:44 39.85393 -104.68202 5383 ft 7 kts 180°
2026-05-06 22:44 39.85336 -104.68205 5384 ft 15 kts 185°
2026-05-06 22:44 39.85233 -104.68288 5384 ft 18 kts 239°
2026-05-06 22:44 39.85211 -104.68468 5377 ft 22 kts 266°
2026-05-06 22:45 39.85202 -104.68690 5366 ft 27 kts 266°
2026-05-06 22:45 39.85196 -104.68950 5354 ft 31 kts 269°
2026-05-06 22:45 39.85197 -104.69235 5342 ft 31 kts 270°
2026-05-06 22:45 39.85203 -104.69468 5334 ft 20 kts 269°
2026-05-06 22:46 39.85203 -104.69517 5335 ft 0 kts 270°
2026-05-06 22:46 39.85203 -104.69534 5335 ft 9 kts 270°
2026-05-06 22:46 39.85237 -104.69655 5334 ft 15 kts 337°
2026-05-06 22:46 39.85339 -104.69658 5335 ft 19 kts
2026-05-06 22:47 39.85726 -104.69654 5333 ft 95 kts
2026-05-06 22:47 39.86050 -104.69676 5329 ft 52 kts
2026-05-06 22:47 39.86674 -104.69649 5332 ft 125 kts
2026-05-06 22:47 39.87697 -104.69612 5487 ft 157 kts
2026-05-06 22:48 39.88853 -104.69518 5895 ft 180 kts
2026-05-06 22:48 39.90214 -104.69435 6351 ft 208 kts
2026-05-06 22:48 39.91690 -104.69365 7175 ft 220 kts
2026-05-06 22:48 39.93301 -104.69279 7815 ft 243 kts 360°
2026-05-06 22:49 39.95082 -104.69269 8426 ft 268 kts 358°
2026-05-06 22:49 39.97025 -104.69393 9037 ft 292 kts 353°
2026-05-06 22:49 39.99125 -104.69722 9668 ft 316 kts 351°
2026-05-06 22:49 40.01370 -104.70149 10275 ft 335 kts 350°
2026-05-06 22:50 40.03737 -104.70630 10850 ft 351 kts 349°
2026-05-06 22:50 40.06161 -104.71126 11424 ft 364 kts 349°
2026-05-06 22:50 40.08739 -104.71647 12019 ft 374 kts 349°
2026-05-06 22:50 40.11302 -104.72148 12606 ft 370 kts 349°
2026-05-06 22:51 40.13835 -104.72631 13214 ft 366 kts 349°
2026-05-06 22:51 40.16350 -104.73106 13826 ft 363 kts 349°
2026-05-06 22:51 40.18845 -104.73576 14400 ft 361 kts 349°
2026-05-06 22:51 40.21348 -104.74047 14976 ft 368 kts 349°
2026-05-06 22:52 40.23838 -104.74515 15539 ft 359 kts 349°
2026-05-06 22:52 40.26315 -104.74987 16122 ft 361 kts 349°
2026-05-06 22:52 40.28780 -104.75459 16708 ft 363 kts 349°
2026-05-06 22:52 40.31326 -104.75943 17223 ft 367 kts 349°
2026-05-06 22:53 40.33840 -104.76423 17729 ft 371 kts 350°
2026-05-06 22:53 40.36408 -104.76920 18243 ft 375 kts 350°
2026-05-06 22:53 40.38993 -104.77421 18724 ft 378 kts 350°
2026-05-06 22:53 40.41611 -104.77925 19178 ft 380 kts 351°
2026-05-06 22:54 40.44235 -104.78425 19636 ft 382 kts 351°
2026-05-06 22:54 40.46869 -104.78929 20104 ft 384 kts 351°
2026-05-06 22:54 40.49519 -104.79439 20582 ft 384 kts 352°
2026-05-06 22:54 40.52168 -104.79947 21064 ft 385 kts 352°
2026-05-06 22:55 40.54822 -104.80455 21555 ft 385 kts 352°
2026-05-06 22:55 40.57471 -104.80964 22063 ft 384 kts 353°
2026-05-06 22:55 40.60116 -104.81473 22549 ft 384 kts 353°
2026-05-06 22:55 40.62751 -104.81978 23066 ft 382 kts 353°
2026-05-06 22:56 40.65377 -104.82486 23591 ft 381 kts 354°
2026-05-06 22:56 40.68001 -104.82997 24049 ft 380 kts 354°
2026-05-06 22:56 40.70610 -104.83504 24493 ft 378 kts 354°
2026-05-06 22:56 40.73215 -104.84007 24935 ft 376 kts 354°
2026-05-06 22:57 40.75793 -104.84515 25389 ft 375 kts 352°
2026-05-06 22:57 40.78292 -104.85355 25848 ft 375 kts 344°
2026-05-06 22:57 40.80698 -104.86698 26312 ft 377 kts 337°
2026-05-06 22:57 40.82997 -104.88390 26616 ft 380 kts 335°
2026-05-06 22:58 40.85305 -104.90114 26888 ft 382 kts 335°
2026-05-06 22:58 40.87637 -104.91856 27164 ft 384 kts 335°
2026-05-06 22:58 40.89971 -104.93604 27441 ft 386 kts 335°
2026-05-06 22:58 40.92312 -104.95358 27727 ft 388 kts 335°
2026-05-06 22:59 40.94664 -104.97123 28020 ft 389 kts 335°
2026-05-06 22:59 40.97022 -104.98888 28303 ft 390 kts 335°
2026-05-06 22:59 40.99382 -105.00660 28594 ft 390 kts 335°
2026-05-06 22:59 41.01748 -105.02440 28896 ft 391 kts 335°
2026-05-06 23:00 41.04112 -105.04215 29206 ft 391 kts 335°
2026-05-06 23:00 41.06480 -105.05993 29514 ft 391 kts 335°
2026-05-06 23:00 41.08851 -105.07774 29802 ft 391 kts 335°
2026-05-06 23:00 41.11211 -105.09552 30114 ft 391 kts 335°
2026-05-06 23:01 41.13574 -105.11336 30392 ft 390 kts 335°
2026-05-06 23:01 41.15340 -105.12673 30585 ft 390 kts 335°